JBU25 KBOS-TBPB

Flight info

Callsign JBU25
Flight time N/A
Altitude 35000
Route BRUWN7 BRUWN DCT BORQE Y578 KAYYT/M079F350 DCT DASER DCT BALTN DCT MEGGG L456 HANCY/N0465F350 L456 THANK DCT ELOPO UB520 ANU UA632 BGI
Aircraft A321/M-SDE3FGHIRWY/LB1

Departure

Time N/A
Airport Boston Logan International Airport (KBOS)

Arrival

Time 2026-04-29 20:21
Airport Grantley Adams International Airport (TBPB)
Time Latitude Longitude Altitude Speed Heading
2026-04-29 18:34 24.17720 -66.61433 35055 ft 463 kts 175°
2026-04-29 18:34 24.14548 -66.60763 35057 ft 463 kts 175°
2026-04-29 18:35 24.09282 -66.59652 35051 ft 463 kts 175°
2026-04-29 18:35 24.01913 -66.58105 35053 ft 463 kts 175°
2026-04-29 18:36 23.96646 -66.56996 35052 ft 463 kts 175°
2026-04-29 18:36 23.90310 -66.55663 35053 ft 463 kts 175°
2026-04-29 18:37 23.83970 -66.54338 35056 ft 463 kts 176°
2026-04-29 18:37 23.77671 -66.53021 35053 ft 463 kts 176°
2026-04-29 18:38 23.71333 -66.51693 35054 ft 463 kts 176°
2026-04-29 18:38 23.64995 -66.50364 35049 ft 463 kts 176°
2026-04-29 18:39 23.58691 -66.49039 35052 ft 463 kts 176°
2026-04-29 18:39 23.52347 -66.47715 35052 ft 463 kts 176°
2026-04-29 18:40 23.46006 -66.46398 35052 ft 463 kts 176°
2026-04-29 18:40 23.39710 -66.45095 35051 ft 463 kts 176°
2026-04-29 18:41 23.27040 -66.42447 35051 ft 463 kts 176°
2026-04-29 18:42 23.20699 -66.41134 35057 ft 463 kts 176°
2026-04-29 18:42 23.14407 -66.39833 35052 ft 463 kts 176°
2026-04-29 18:43 23.08083 -66.38515 35057 ft 463 kts 176°
2026-04-29 18:43 23.01776 -66.37200 35055 ft 462 kts 176°
2026-04-29 18:44 22.95448 -66.35894 35049 ft 462 kts 176°
2026-04-29 18:44 22.89110 -66.34591 35048 ft 463 kts 176°
2026-04-29 18:45 22.82788 -66.33289 35044 ft 463 kts 176°
2026-04-29 18:45 22.76447 -66.31981 35045 ft 463 kts 176°
2026-04-29 18:46 22.70153 -66.30678 35043 ft 463 kts 176°
2026-04-29 18:46 22.63816 -66.29371 35047 ft 463 kts 177°
2026-04-29 18:47 22.57485 -66.28070 35044 ft 463 kts 177°
2026-04-29 18:47 22.51182 -66.26777 35042 ft 463 kts 177°
2026-04-29 18:48 22.44847 -66.25474 35044 ft 462 kts 177°
2026-04-29 18:48 22.38554 -66.24183 35041 ft 462 kts 177°
2026-04-29 18:49 22.32223 -66.22889 35039 ft 462 kts 177°
2026-04-29 18:49 22.25897 -66.21590 35044 ft 462 kts 177°
2026-04-29 18:50 22.19615 -66.20310 35040 ft 462 kts 177°
2026-04-29 18:50 22.13293 -66.19015 35032 ft 461 kts 177°
2026-04-29 18:51 22.06980 -66.17726 35036 ft 461 kts 178°
2026-04-29 18:51 22.00694 -66.16447 35032 ft 461 kts 178°
2026-04-29 18:52 21.94380 -66.15162 35030 ft 461 kts 178°
2026-04-29 18:52 21.88071 -66.13868 35035 ft 461 kts 178°
2026-04-29 18:53 21.81757 -66.12577 35032 ft 461 kts 178°
2026-04-29 18:53 21.75487 -66.11310 35031 ft 461 kts 178°
2026-04-29 18:54 21.69179 -66.10036 35033 ft 461 kts 178°
2026-04-29 18:54 21.62868 -66.08751 35026 ft 461 kts 178°
2026-04-29 18:55 21.56595 -66.07469 35027 ft 461 kts 178°
2026-04-29 18:55 21.50282 -66.06137 35025 ft 465 kts 173°
2026-04-29 18:56 21.47191 -66.04989 35022 ft 476 kts 164°
2026-04-29 18:56 21.44236 -66.03292 35022 ft 487 kts 154°
2026-04-29 18:56 21.38968 -65.98625 35020 ft 497 kts 146°
2026-04-29 18:57 21.33772 -65.93700 35016 ft 497 kts 146°
2026-04-29 18:57 21.28603 -65.88812 35015 ft 497 kts 146°
2026-04-29 18:58 21.23399 -65.83901 35011 ft 498 kts 146°
2026-04-29 18:58 21.18201 -65.78981 35012 ft 498 kts 146°
2026-04-29 18:59 21.12998 -65.74061 35015 ft 498 kts 146°
2026-04-29 18:59 21.07789 -65.69149 35016 ft 498 kts 146°
2026-04-29 19:00 21.02613 -65.64277 35011 ft 498 kts 146°
2026-04-29 19:00 20.97396 -65.59363 35010 ft 499 kts 146°
2026-04-29 19:01 20.92206 -65.54473 35009 ft 499 kts 146°
2026-04-29 19:01 20.86983 -65.49565 35018 ft 499 kts 146°
2026-04-29 19:02 20.82633 -65.45488 35013 ft 499 kts 146°
2026-04-29 19:02 20.76558 -65.39800 35016 ft 499 kts 146°
2026-04-29 19:03 20.71339 -65.34907 35020 ft 499 kts 146°
2026-04-29 19:03 20.66108 -65.30006 35014 ft 499 kts 146°
2026-04-29 19:04 20.60882 -65.25119 35010 ft 499 kts 146°
2026-04-29 19:04 20.55683 -65.20261 35010 ft 499 kts 146°
2026-04-29 19:05 20.50438 -65.15371 35009 ft 499 kts 146°
2026-04-29 19:05 20.45230 -65.10523 35007 ft 499 kts 146°
2026-04-29 19:06 20.40003 -65.05637 35008 ft 500 kts 146°
2026-04-29 19:07 20.32131 -64.98297 35003 ft 500 kts 146°
2026-04-29 19:07 20.26910 -64.93458 35004 ft 500 kts 146°
2026-04-29 19:08 20.21659 -64.88585 35005 ft 500 kts 146°
2026-04-29 19:08 20.16405 -64.83703 35004 ft 500 kts 146°
2026-04-29 19:09 20.11185 -64.78862 35004 ft 500 kts 146°
2026-04-29 19:09 20.05926 -64.73995 35001 ft 500 kts 146°
2026-04-29 19:10 20.00693 -64.69160 35001 ft 500 kts 146°
2026-04-29 19:10 19.95438 -64.64291 35003 ft 500 kts 146°
2026-04-29 19:11 19.90173 -64.59429 34998 ft 500 kts 146°
2026-04-29 19:11 19.84930 -64.54604 34993 ft 500 kts 146°
2026-04-29 19:12 19.79653 -64.49747 34996 ft 500 kts 146°
2026-04-29 19:12 19.74417 -64.44910 34999 ft 501 kts 146°
2026-04-29 19:13 19.69136 -64.40051 34999 ft 501 kts 146°
2026-04-29 19:13 19.63882 -64.35220 34998 ft 501 kts 145°
2026-04-29 19:14 19.58592 -64.30363 34998 ft 501 kts 146°
2026-04-29 19:14 19.53337 -64.25545 35001 ft 501 kts 145°
2026-04-29 19:15 19.48048 -64.20700 35000 ft 501 kts 145°
2026-04-29 19:15 19.42759 -64.15858 34998 ft 502 kts 145°
2026-04-29 19:16 19.37509 -64.11047 34998 ft 501 kts 145°
2026-04-29 19:16 19.32228 -64.06220 34994 ft 501 kts 145°
2026-04-29 19:17 19.26938 -64.01391 34992 ft 501 kts 145°
2026-04-29 19:17 19.21659 -63.96565 34992 ft 501 kts 145°
2026-04-29 19:18 19.16389 -63.91763 34993 ft 501 kts 145°
2026-04-29 19:18 19.11088 -63.86939 34990 ft 502 kts 145°
2026-04-29 19:19 19.05831 -63.82152 34990 ft 502 kts 145°
2026-04-29 19:19 19.00532 -63.77325 34991 ft 502 kts 145°
2026-04-29 19:20 18.95233 -63.72500 34988 ft 501 kts 145°
2026-04-29 19:20 18.89969 -63.67724 34990 ft 501 kts 145°
2026-04-29 19:21 18.84657 -63.62902 34994 ft 502 kts 145°
2026-04-29 19:21 18.79386 -63.58135 34995 ft 502 kts 145°
2026-04-29 19:22 18.74081 -63.53338 34999 ft 501 kts 145°
2026-04-29 19:22 18.68801 -63.48566 34998 ft 502 kts 145°
2026-04-29 19:23 18.63493 -63.43770 34999 ft 502 kts 145°
2026-04-29 19:23 18.59077 -63.39778 35003 ft 502 kts 145°
2026-04-29 19:24 18.53757 -63.34975 35003 ft 502 kts 145°
2026-04-29 19:24 18.48482 -63.30217 35007 ft 501 kts 145°
2026-04-29 19:25 18.43180 -63.25440 35011 ft 500 kts 145°
2026-04-29 19:25 18.37886 -63.20670 35016 ft 499 kts 145°
2026-04-29 19:26 18.32634 -63.15943 35021 ft 499 kts 145°
2026-04-29 19:26 18.27359 -63.11205 35024 ft 498 kts 145°
2026-04-29 19:27 18.22080 -63.06463 35021 ft 498 kts 145°
2026-04-29 19:27 18.16813 -63.01739 35022 ft 497 kts 145°
2026-04-29 19:28 18.11573 -62.97036 35018 ft 497 kts 145°
2026-04-29 19:28 18.06309 -62.92310 34990 ft 497 kts 145°
2026-04-29 19:29 18.01040 -62.87602 34992 ft 496 kts 145°
2026-04-29 19:29 17.95770 -62.82894 34992 ft 496 kts 145°
2026-04-29 19:30 17.90551 -62.78226 34994 ft 496 kts 145°
2026-04-29 19:30 17.85283 -62.73529 34991 ft 495 kts 145°
2026-04-29 19:31 17.80021 -62.68839 34994 ft 495 kts 145°
2026-04-29 19:31 17.74803 -62.64186 34997 ft 495 kts 144°
2026-04-29 19:32 17.69547 -62.59487 34999 ft 495 kts 144°
2026-04-29 19:32 17.64505 -62.54583 35002 ft 501 kts 134°
2026-04-29 19:33 17.60334 -62.48675 34994 ft 504 kts 129°
2026-04-29 19:33 17.56234 -62.42749 34991 ft 504 kts 130°
2026-04-29 19:34 17.52098 -62.36796 34990 ft 504 kts 130°
2026-04-29 19:34 17.47965 -62.30847 34990 ft 504 kts 130°
2026-04-29 19:35 17.43861 -62.24944 34985 ft 504 kts 130°
2026-04-29 19:35 17.39726 -62.18984 34986 ft 504 kts 130°
2026-04-29 19:36 17.35626 -62.13083 34984 ft 504 kts 130°
2026-04-29 19:36 17.31490 -62.07139 34986 ft 504 kts 130°
2026-04-29 19:37 17.27349 -62.01186 34989 ft 504 kts 130°
2026-04-29 19:37 17.23241 -61.95294 34992 ft 504 kts 130°
2026-04-29 19:38 17.19100 -61.89365 34989 ft 504 kts 130°
2026-04-29 19:38 17.14935 -61.83450 34988 ft 502 kts 134°
2026-04-29 19:39 17.09883 -61.78557 34985 ft 490 kts 151°
2026-04-29 19:39 17.04074 -61.75035 34995 ft 485 kts 156°
2026-04-29 19:40 16.98160 -61.71595 34986 ft 485 kts 156°
2026-04-29 19:40 16.92267 -61.68158 34984 ft 485 kts 156°
2026-04-29 19:41 16.86409 -61.64739 34990 ft 485 kts 156°
2026-04-29 19:41 16.80500 -61.61290 34986 ft 485 kts 156°
2026-04-29 19:42 16.74601 -61.57847 34988 ft 486 kts 156°
2026-04-29 19:42 16.68712 -61.54415 34979 ft 486 kts 156°
2026-04-29 19:43 16.62824 -61.50996 34984 ft 486 kts 156°
2026-04-29 19:43 16.56899 -61.47560 34988 ft 486 kts 156°
2026-04-29 19:44 16.50980 -61.44125 34980 ft 486 kts 156°
2026-04-29 19:44 16.45061 -61.40683 34985 ft 487 kts 156°
2026-04-29 19:45 16.39174 -61.37265 34982 ft 487 kts 156°
2026-04-29 19:45 16.33237 -61.33822 34988 ft 487 kts 156°
2026-04-29 19:46 16.27320 -61.30401 34977 ft 487 kts 156°
2026-04-29 19:46 16.21430 -61.26987 34986 ft 487 kts 156°
2026-04-29 19:47 16.15495 -61.23547 34980 ft 487 kts 156°
2026-04-29 19:47 16.09575 -61.20128 34978 ft 487 kts 156°
2026-04-29 19:48 16.03674 -61.16729 34979 ft 487 kts 156°
2026-04-29 19:48 15.97747 -61.13308 34976 ft 487 kts 156°
2026-04-29 19:49 15.91816 -61.09888 34977 ft 487 kts 156°
2026-04-29 19:49 15.85894 -61.06465 34978 ft 486 kts 156°
2026-04-29 19:50 15.80010 -61.03067 34974 ft 487 kts 156°
2026-04-29 19:50 15.74084 -60.99655 34976 ft 487 kts 156°
2026-04-29 19:51 15.68147 -60.96246 34975 ft 487 kts 156°
2026-04-29 19:51 15.62248 -60.92865 34973 ft 487 kts 155°
2026-04-29 19:52 15.56318 -60.89462 34971 ft 487 kts 155°
2026-04-29 19:52 15.50384 -60.86046 34972 ft 487 kts 155°
2026-04-29 19:53 15.44489 -60.82660 34973 ft 487 kts 155°
2026-04-29 19:53 15.38546 -60.79251 34970 ft 487 kts 155°
2026-04-29 19:54 15.29637 -60.74144 34970 ft 487 kts 155°
2026-04-29 19:54 15.23740 -60.70769 34969 ft 487 kts 155°
2026-04-29 19:55 15.17808 -60.67376 34967 ft 488 kts 155°
2026-04-29 19:55 15.11844 -60.63969 34963 ft 488 kts 155°
2026-04-29 19:56 15.05918 -60.60583 34963 ft 488 kts 155°
2026-04-29 19:56 14.99958 -60.57182 34963 ft 489 kts 155°
2026-04-29 19:57 14.94999 -60.54344 34966 ft 489 kts 155°
2026-04-29 19:57 14.88057 -60.50382 34965 ft 489 kts 155°
2026-04-29 19:58 14.82101 -60.46990 34964 ft 489 kts 155°
2026-04-29 19:58 14.76176 -60.43619 34964 ft 488 kts 155°
2026-04-29 19:59 14.70209 -60.40225 34454 ft 491 kts 155°
2026-04-29 19:59 14.67205 -60.38518 33727 ft 494 kts 155°
2026-04-29 19:59 14.64116 -60.36953 32973 ft 492 kts 161°
2026-04-29 20:00 14.60978 -60.35583 32557 ft 486 kts 160°
2026-04-29 20:00 14.57862 -60.34223 32045 ft 482 kts 160°
2026-04-29 20:00 14.54828 -60.32901 31679 ft 476 kts 160°
2026-04-29 20:00 14.51779 -60.31576 31190 ft 473 kts 160°
2026-04-29 20:01 14.48756 -60.30264 30738 ft 469 kts 160°
2026-04-29 20:01 14.45754 -60.28959 30296 ft 464 kts 160°
2026-04-29 20:01 14.42790 -60.27666 29844 ft 460 kts 159°
2026-04-29 20:01 14.39886 -60.26401 29335 ft 456 kts 159°
2026-04-29 20:02 14.36969 -60.25130 28836 ft 451 kts 159°
2026-04-29 20:02 14.34088 -60.23876 28350 ft 447 kts 159°
2026-04-29 20:02 14.31238 -60.22638 27873 ft 442 kts 159°
2026-04-29 20:02 14.30318 -60.22239 27721 ft 441 kts 159°
2026-04-29 20:03 14.25610 -60.20202 26928 ft 434 kts 159°
2026-04-29 20:03 14.22870 -60.19017 26476 ft 430 kts 159°
2026-04-29 20:03 14.20112 -60.17822 26023 ft 426 kts 159°
2026-04-29 20:03 14.17392 -60.16645 25583 ft 422 kts 159°
2026-04-29 20:04 14.14693 -60.15474 25153 ft 418 kts 159°
2026-04-29 20:04 14.12015 -60.14312 24740 ft 414 kts 159°
2026-04-29 20:04 14.09405 -60.13181 24331 ft 410 kts 159°
2026-04-29 20:04 14.06779 -60.12044 23939 ft 407 kts 159°
2026-04-29 20:05 14.04175 -60.10919 23560 ft 403 kts 159°
2026-04-29 20:05 14.01597 -60.09804 23115 ft 400 kts 158°
2026-04-29 20:05 13.99032 -60.08692 22667 ft 398 kts 158°
2026-04-29 20:05 13.96488 -60.07593 22238 ft 395 kts 158°
2026-04-29 20:06 13.93962 -60.06502 21795 ft 392 kts 158°
2026-04-29 20:06 13.91487 -60.05432 21371 ft 389 kts 158°
2026-04-29 20:06 13.88998 -60.04360 20938 ft 386 kts 158°
2026-04-29 20:06 13.86521 -60.03291 20505 ft 383 kts 158°
2026-04-29 20:07 13.84070 -60.02232 20082 ft 380 kts 158°
2026-04-29 20:07 13.81634 -60.01177 19659 ft 378 kts 158°
2026-04-29 20:07 13.79216 -60.00134 19234 ft 375 kts 158°
2026-04-29 20:07 13.76820 -59.99101 18811 ft 372 kts 158°
2026-04-29 20:08 13.74471 -59.98086 18396 ft 369 kts 157°
2026-04-29 20:08 13.73670 -59.97740 18260 ft 368 kts 157°
2026-04-29 20:08 13.69752 -59.96049 17450 ft 365 kts 157°
2026-04-29 20:08 13.67417 -59.95043 16972 ft 362 kts 157°
2026-04-29 20:09 13.65096 -59.94040 16508 ft 360 kts 156°
2026-04-29 20:09 13.62797 -59.93047 16036 ft 358 kts 156°
2026-04-29 20:09 13.60506 -59.92060 15569 ft 356 kts 156°
2026-04-29 20:09 13.58230 -59.91081 15113 ft 353 kts 156°
2026-04-29 20:10 13.55997 -59.90121 14659 ft 352 kts 156°
2026-04-29 20:10 13.53738 -59.89149 14212 ft 350 kts 155°
2026-04-29 20:10 13.51497 -59.88184 13766 ft 348 kts 155°
2026-04-29 20:10 13.49275 -59.87225 13409 ft 342 kts 155°
2026-04-29 20:11 13.47143 -59.86308 13283 ft 330 kts 155°
2026-04-29 20:11 13.45057 -59.85413 13153 ft 318 kts 155°
2026-04-29 20:11 13.43036 -59.84547 12892 ft 312 kts 155°
2026-04-29 20:11 13.41037 -59.83687 12540 ft 309 kts 155°
2026-04-29 20:12 13.39724 -59.83122 12296 ft 308 kts 155°
2026-04-29 20:12 13.37109 -59.81994 11800 ft 306 kts 155°
2026-04-29 20:12 13.35149 -59.81148 11445 ft 304 kts 155°
2026-04-29 20:12 13.33858 -59.80593 11212 ft 303 kts 155°
2026-04-29 20:13 13.31923 -59.79764 10866 ft 301 kts 155°
2026-04-29 20:13 13.29992 -59.78936 10523 ft 299 kts 155°
2026-04-29 20:13 13.28077 -59.78113 10185 ft 297 kts 155°
2026-04-29 20:13 13.26171 -59.77292 9692 ft 297 kts 155°
2026-04-29 20:14 13.24273 -59.76476 9063 ft 294 kts 155°
2026-04-29 20:14 13.22391 -59.75668 8438 ft 291 kts 155°
2026-04-29 20:14 13.20534 -59.74871 7828 ft 287 kts 155°
2026-04-29 20:14 13.18718 -59.74091 7234 ft 285 kts 156°
2026-04-29 20:15 13.16876 -59.73302 6640 ft 282 kts 156°
2026-04-29 20:15 13.15095 -59.72536 6047 ft 280 kts 156°
2026-04-29 20:15 13.13303 -59.71765 5427 ft 278 kts 156°
2026-04-29 20:15 13.11490 -59.71116 4821 ft 276 kts 163°
2026-04-29 20:16 13.09640 -59.70614 4206 ft 274 kts 164°
2026-04-29 20:16 13.07795 -59.70144 3604 ft 273 kts 164°
2026-04-29 20:16 13.05957 -59.69687 3095 ft 267 kts 164°
2026-04-29 20:16 13.04288 -59.69100 2968 ft 240 kts 142°
2026-04-29 20:17 13.03359 -59.67819 3004 ft 222 kts 103°
2026-04-29 20:17 13.03323 -59.66293 2985 ft 215 kts 82°
2026-04-29 20:17 13.03623 -59.64815 2820 ft 208 kts 77°
2026-04-29 20:17 13.03969 -59.63410 2582 ft 197 kts 77°
2026-04-29 20:18 13.04295 -59.62097 2358 ft 183 kts 77°
2026-04-29 20:18 13.04592 -59.60895 2151 ft 161 kts 77°
2026-04-29 20:18 13.04853 -59.59836 1929 ft 148 kts 77°
2026-04-29 20:18 13.05099 -59.58836 1732 ft 141 kts 77°
2026-04-29 20:19 13.05337 -59.57866 1546 ft 140 kts 77°
2026-04-29 20:19 13.05573 -59.56905 1366 ft 140 kts 77°
2026-04-29 20:19 13.05810 -59.55942 1186 ft 138 kts 78°
2026-04-29 20:19 13.06041 -59.55004 1017 ft 136 kts 79°
2026-04-29 20:20 13.06272 -59.54064 850 ft 137 kts 77°
2026-04-29 20:20 13.06506 -59.53112 676 ft 136 kts 79°
2026-04-29 20:20 13.06739 -59.52162 511 ft 138 kts 78°
2026-04-29 20:20 13.06976 -59.51199 322 ft 140 kts 79°
2026-04-29 20:21 13.07211 -59.50238 180 ft 132 kts 79°
2026-04-29 20:21 13.07399 -59.49445 173 ft 95 kts 75°
2026-04-29 20:21 13.07510 -59.49024 172 ft 30 kts 65°
2026-04-29 20:21 13.07637 -59.48892 173 ft 20 kts 46°
2026-04-29 20:22 13.07725 -59.48795 172 ft 18 kts 47°
2026-04-29 20:22 13.07775 -59.48729 172 ft 11 kts 63°
2026-04-29 20:22 13.07798 -59.48654 172 ft 11 kts 76°
2026-04-29 20:22 13.07819 -59.48571 172 ft 12 kts 71°
2026-04-29 20:23 13.07888 -59.48557 172 ft 10 kts 346°
2026-04-29 20:23 13.07913 -59.48563 172 ft 0 kts 345°
2026-04-29 20:23 13.07915 -59.48564 172 ft 1 kts 345°
2026-04-29 20:23 13.07918 -59.48564 172 ft 0 kts 345°